TimeCST,TemperatureF,Dew PointF,Humidity,Sea Level PressureIn,VisibilityMPH,Wind Direction,Wind SpeedMPH,Gust SpeedMPH,PrecipitationIn,Events,Conditions,WindDirDegrees,DateUTC
12:15 AM,28.4,15.8,59,30.19,10.0,Calm,Calm,-,N/A,,Clear,0,2013-02-16 06:15:00
12:35 AM,28.4,15.8,59,30.19,10.0,Calm,Calm,-,N/A,,Clear,0,2013-02-16 06:35:00
12:55 AM,26.6,17.6,69,30.19,10.0,NNW,3.5,-,N/A,,Clear,340,2013-02-16 06:55:00
1:15 AM,24.8,17.6,74,30.18,10.0,Calm,Calm,-,N/A,,Clear,0,2013-02-16 07:15:00
1:35 AM,26.6,15.8,64,30.18,10.0,WNW,3.5,-,N/A,,Scattered Clouds,300,2013-02-16 07:35:00
1:55 AM,26.6,17.6,69,30.17,10.0,Calm,Calm,-,N/A,,Mostly Cloudy,0,2013-02-16 07:55:00
2:15 AM,26.6,15.8,64,30.17,10.0,Calm,Calm,-,N/A,,Clear,0,2013-02-16 08:15:00
2:35 AM,24.8,17.6,74,30.17,10.0,WSW,4.6,-,N/A,,Clear,250,2013-02-16 08:35:00
2:55 AM,24.8,17.6,74,30.17,10.0,West,3.5,-,N/A,,Clear,280,2013-02-16 08:55:00
3:15 AM,24.8,17.6,74,30.17,10.0,WNW,4.6,-,N/A,,Clear,290,2013-02-16 09:15:00
3:55 AM,24.8,17.6,74,30.18,10.0,West,5.8,-,N/A,,Clear,280,2013-02-16 09:55:00
4:15 AM,24.8,17.6,74,30.17,10.0,West,4.6,-,N/A,,Clear,260,2013-02-16 10:15:00
4:35 AM,24.8,17.6,74,30.17,10.0,West,5.8,-,N/A,,Clear,260,2013-02-16 10:35:00
4:55 AM,24.8,17.6,74,30.17,10.0,West,5.8,-,N/A,,Scattered Clouds,270,2013-02-16 10:55:00
5:15 AM,24.8,17.6,74,30.18,10.0,West,5.8,-,N/A,,Overcast,280,2013-02-16 11:15:00
5:55 AM,26.6,19.4,74,30.18,10.0,WNW,6.9,-,N/A,,Overcast,300,2013-02-16 11:55:00
6:15 AM,26.6,17.6,69,30.18,10.0,NW,6.9,-,N/A,,Overcast,310,2013-02-16 12:15:00
6:55 AM,26.6,17.6,69,30.19,10.0,NNW,6.9,-,N/A,,Mostly Cloudy,340,2013-02-16 12:55:00
7:15 AM,26.6,17.6,69,30.19,10.0,NNW,8.1,-,N/A,,Mostly Cloudy,340,2013-02-16 13:15:00
7:35 AM,26.6,19.4,74,30.20,10.0,North,6.9,-,N/A,,Mostly Cloudy,350,2013-02-16 13:35:00
7:55 AM,28.4,19.4,69,30.21,10.0,North,10.4,-,N/A,,Mostly Cloudy,350,2013-02-16 13:55:00
8:15 AM,28.4,17.6,64,30.21,10.0,North,12.7,-,N/A,,Overcast,350,2013-02-16 14:15:00
8:35 AM,28.4,17.6,64,30.21,10.0,North,12.7,17.3,N/A,,Mostly Cloudy,360,2013-02-16 14:35:00
8:55 AM,28.4,17.6,64,30.21,10.0,NNW,12.7,-,N/A,,Mostly Cloudy,340,2013-02-16 14:55:00
9:15 AM,30.2,17.6,60,30.21,10.0,North,13.8,-,N/A,,Mostly Cloudy,360,2013-02-16 15:15:00
9:35 AM,30.2,17.6,60,30.21,10.0,North,9.2,-,N/A,,Clear,360,2013-02-16 15:35:00
12:35 PM,33.8,10.4,38,30.20,10.0,NNW,13.8,23.0,N/A,,Scattered Clouds,330,2013-02-16 18:35:00
12:55 PM,35.6,10.4,35,30.19,10.0,NW,12.7,21.9,N/A,,Partly Cloudy,320,2013-02-16 18:55:00
1:15 PM,35.6,10.4,35,30.19,10.0,NW,9.2,18.4,N/A,,Clear,310,2013-02-16 19:15:00
1:35 PM,35.6,8.6,33,30.19,10.0,WNW,11.5,-,N/A,,Clear,300,2013-02-16 19:35:00
1:55 PM,35.6,8.6,33,30.19,10.0,NW,16.1,20.7,N/A,,Clear,310,2013-02-16 19:55:00
2:15 PM,35.6,8.6,33,30.19,10.0,NNW,12.7,-,N/A,,Clear,340,2013-02-16 20:15:00
2:35 PM,35.6,8.6,33,30.18,10.0,NW,15.0,18.4,N/A,,Partly Cloudy,320,2013-02-16 20:35:00
2:55 PM,33.8,6.8,32,30.18,10.0,NW,13.8,17.3,N/A,,Partly Cloudy,310,2013-02-16 20:55:00
3:15 PM,35.6,8.6,33,30.18,10.0,NNW,11.5,19.6,N/A,,Partly Cloudy,330,2013-02-16 21:15:00
3:55 PM,35.6,6.8,30,30.19,10.0,North,8.1,-,N/A,,Mostly Cloudy,350,2013-02-16 21:55:00
4:15 PM,35.6,6.8,30,30.20,10.0,North,12.7,18.4,N/A,,Scattered Clouds,360,2013-02-16 22:15:00
4:35 PM,35.6,5.0,28,30.19,10.0,NNW,11.5,-,N/A,,Partly Cloudy,330,2013-02-16 22:35:00
4:55 PM,33.8,6.8,32,30.19,10.0,NW,8.1,-,N/A,,Clear,320,2013-02-16 22:55:00
5:15 PM,32.0,6.8,35,30.19,10.0,WNW,8.1,-,N/A,,Clear,300,2013-02-16 23:15:00
5:55 PM,32.0,8.6,38,30.20,10.0,WNW,5.8,-,N/A,,Clear,300,2013-02-16 23:55:00
6:15 PM,30.2,8.6,40,30.21,10.0,WNW,3.5,-,N/A,,Clear,290,2013-02-17 00:15:00
6:35 PM,30.2,8.6,40,30.21,10.0,West,4.6,-,N/A,,Clear,270,2013-02-17 00:35:00
7:15 PM,28.4,8.6,43,30.21,10.0,West,4.6,-,N/A,,Clear,260,2013-02-17 01:15:00
7:35 PM,28.4,8.6,43,30.21,10.0,WSW,5.8,-,N/A,,Clear,250,2013-02-17 01:35:00
7:55 PM,28.4,8.6,43,30.21,10.0,WSW,4.6,-,N/A,,Clear,240,2013-02-17 01:55:00
8:15 PM,26.6,8.6,47,30.21,10.0,WSW,4.6,-,N/A,,Clear,240,2013-02-17 02:15:00
9:15 PM,26.6,8.6,47,30.22,10.0,WSW,5.8,-,N/A,,Clear,240,2013-02-17 03:15:00
9:55 PM,26.6,8.6,47,30.22,10.0,SW,5.8,-,N/A,,Clear,230,2013-02-17 03:55:00
10:15 PM,26.6,8.6,47,30.22,10.0,WSW,5.8,-,N/A,,Clear,240,2013-02-17 04:15:00
10:35 PM,26.6,8.6,47,30.21,10.0,SW,6.9,-,N/A,,Clear,230,2013-02-17 04:35:00
10:55 PM,26.6,8.6,47,30.21,10.0,SW,5.8,-,N/A,,Clear,230,2013-02-17 04:55:00
11:15 PM,26.6,8.6,47,30.22,10.0,SW,5.8,-,N/A,,Clear,230,2013-02-17 05:15:00
11:35 PM,26.6,8.6,47,30.21,10.0,SW,6.9,-,N/A,,Clear,220,2013-02-17 05:35:00
11:55 PM,26.6,8.6,47,30.21,10.0,SW,6.9,-,N/A,,Clear,230,2013-02-17 05:55:00